TimeMDT,TemperatureF,Dew PointF,Humidity,Sea Level PressureIn,VisibilityMPH,Wind Direction,Wind SpeedMPH,Gust SpeedMPH,PrecipitationIn,Events,Conditions,WindDirDegrees,DateUTC
12:53 AM,72.0,39.9,31,29.89,10.0,North,11.5,-,N/A,,Clear,360,2013-07-23 06:53:00
1:53 AM,68.0,41.0,37,29.90,10.0,North,9.2,-,N/A,,Clear,360,2013-07-23 07:53:00
2:53 AM,66.0,46.0,48,29.91,10.0,North,4.6,-,N/A,,Clear,10,2013-07-23 08:53:00
3:53 AM,61.0,46.0,58,29.93,10.0,NW,5.8,-,N/A,,Clear,320,2013-07-23 09:53:00
4:53 AM,60.1,46.9,62,29.93,10.0,NW,10.4,-,N/A,,Clear,310,2013-07-23 10:53:00
5:53 AM,59.0,48.9,69,29.95,10.0,NW,8.1,-,N/A,,Clear,310,2013-07-23 11:53:00
6:53 AM,62.1,50.0,65,29.96,10.0,NW,6.9,-,N/A,,Clear,320,2013-07-23 12:53:00
7:53 AM,64.0,51.1,63,29.97,10.0,WSW,5.8,-,N/A,,Partly Cloudy,240,2013-07-23 13:53:00
8:53 AM,66.9,52.0,59,29.99,10.0,SW,8.1,-,N/A,,Clear,220,2013-07-23 14:53:00
9:53 AM,71.1,53.1,53,29.99,10.0,SW,6.9,-,N/A,,Clear,230,2013-07-23 15:53:00
10:53 AM,75.0,53.1,46,29.99,10.0,SSW,6.9,-,N/A,,Partly Cloudy,210,2013-07-23 16:53:00
11:53 AM,80.1,53.1,39,29.97,10.0,SSE,5.8,-,N/A,,Partly Cloudy,150,2013-07-23 17:53:00
12:53 PM,84.9,50.0,30,29.96,10.0,Variable,5.8,-,N/A,,Partly Cloudy,0,2013-07-23 18:53:00
1:53 PM,87.1,46.9,25,29.95,10.0,South,5.8,-,N/A,,Scattered Clouds,170,2013-07-23 19:53:00
2:53 PM,91.0,46.0,21,29.94,10.0,Variable,3.5,-,N/A,,Scattered Clouds,0,2013-07-23 20:53:00
3:53 PM,91.0,46.0,21,29.94,10.0,NE,16.1,21.9,N/A,,Scattered Clouds,50,2013-07-23 21:53:00
4:53 PM,90.0,46.9,23,29.94,10.0,NE,21.9,-,N/A,,Partly Cloudy,50,2013-07-23 22:53:00
5:53 PM,89.1,48.0,24,29.95,10.0,East,19.6,24.2,N/A,,Partly Cloudy,80,2013-07-23 23:53:00
6:53 PM,87.1,48.0,26,29.95,10.0,ENE,16.1,-,N/A,,Partly Cloudy,60,2013-07-24 00:53:00
7:53 PM,84.0,48.9,29,29.98,10.0,ENE,15.0,-,N/A,,Clear,60,2013-07-24 01:53:00
8:53 PM,80.1,48.9,34,30.00,10.0,NE,10.4,-,N/A,,Clear,50,2013-07-24 02:53:00
9:53 PM,77.0,48.9,37,30.03,10.0,ENE,10.4,-,N/A,,Clear,60,2013-07-24 03:53:00
10:53 PM,73.9,48.9,41,30.04,10.0,NE,9.2,-,N/A,,Clear,50,2013-07-24 04:53:00
11:53 PM,72.0,50.0,46,30.04,10.0,NNE,5.8,-,N/A,,Clear,20,2013-07-24 05:53:00